[Date Prev][Date Next][Thread Prev][Thread Next] - [Date Index][Thread Index][Author Index]
2 Line ISS Keps 1-23
- Subject: [sarex] 2 Line ISS Keps 1-23
- From: "Dave Larsen PhD" <doc@xxxxxxxxxxx>
- Date: Sun, 22 Jan 2006 18:33:29 -0800
ISS
1 25544U 98067A 06023.01327603 .00009237 00000-0 67162-4 0 2016
2 25544 051.6437 213.9960 0010116 183.8486 314.1998 15.74163507410284
----
Via the sarex mailing list at AMSAT.ORG courtesy of AMSAT-NA.
To unsubscribe, send "unsubscribe sarex" to Majordomo@amsat.org
AMSAT Home